Audubon, IA

9:41 AM CDT on May 20, 2018 (GMT -0500)
Audubon County

Weather History for KADU - October, 2011

Change the Weather History Date:

Wednesday, October 12, 2011

  Actual Average Record
Temperature  
Mean Temperature 56 °F -  
Max Temperature 62 °F 65 °F 87 °F (1956)
Min Temperature 50 °F 41 °F 21 °F (1980)
Degree Days  
Heating Degree Days 9    
Growing Degree Days 6 (Base 50)    
Moisture  
Dew Point 51 °F    
Average Humidity 81    
Maximum Humidity 88    
Minimum Humidity 77    
Precipitation  
Precipitation 0.00 in - - ()
Sea Level Pressure  
Sea Level Pressure 29.74 in    
Wind  
Wind Speed 0 mph (NW)    
Max Wind Speed 6 mph    
Max Gust Speed -    
Visibility 9 miles    
Events      
Averages and records for this station are not official NWS values.
T = Trace of Precipitation, MM = Missing Value Source: NWS Daily Summary

Daily Weather History Graph

Daily Weather History Graph

Search for Another Location

Airport or City:

Astronomy

Oct. 12, 2011 Rise Set
Actual Time 7:28 AM CDT 6:43 PM CDT
Civil Twilight 7:00 AM CDT 7:11 PM CDT
Nautical Twilight 6:28 AM CDT 7:43 PM CDT
Astronomical Twilight 5:55 AM CDT 8:15 PM CDT
Moon 6:44 PM CDT (10/12) 8:05 AM CDT (10/12)
Length of Visible Light 12h 11m
Length of Day
11h 15m
Full, 100% of the Moon is Illuminated
Oct 12
Full
Oct 19
Last Quarter
Oct 26
New
Nov 2
First Quarter
Nov 10
Full

Hourly Weather History & Observations

Time (CDT) Temp. Dew Point Humidity Pressure Visibility Wind Dir Wind Speed Gust Speed Precip Events Conditions
12:15 AM 53.6 °F 48.2 °F 82% 29.79 in 10.0 mi Calm Calm - N/A   Scattered Clouds
12:35 AM 55.4 °F 50.0 °F 82% 29.78 in 10.0 mi Calm Calm - N/A   Scattered Clouds
1:15 AM 55.4 °F 48.2 °F 77% 29.78 in 10.0 mi Calm Calm - N/A   Clear
1:35 AM 55.4 °F 48.2 °F 77% 29.78 in 5.0 mi Calm Calm - N/A   Clear
1:55 AM 57.2 °F 51.8 °F 82% 29.77 in 10.0 mi Calm Calm - N/A   Scattered Clouds
2:35 AM 55.4 °F 48.2 °F 77% 29.76 in 10.0 mi Calm Calm - N/A   Scattered Clouds
2:55 AM 57.2 °F 50.0 °F 77% 29.76 in 10.0 mi Calm Calm - N/A   Scattered Clouds
3:15 AM 55.4 °F 48.2 °F 77% 29.75 in 10.0 mi Calm Calm - N/A   Scattered Clouds
3:35 AM 57.2 °F 50.0 °F 77% 29.75 in 10.0 mi Calm Calm - N/A   Scattered Clouds
3:55 AM 55.4 °F 50.0 °F 82% 29.75 in 10.0 mi Calm Calm - N/A   Mostly Cloudy
4:15 AM 55.4 °F 50.0 °F 82% 29.75 in 7.0 mi Calm Calm - N/A   Scattered Clouds
4:35 AM 57.2 °F 51.8 °F 82% 29.74 in 10.0 mi Calm Calm - N/A   Scattered Clouds
4:55 AM 55.4 °F 50.0 °F 82% 29.74 in 10.0 mi Calm Calm - N/A   Scattered Clouds
5:15 AM 57.2 °F 51.8 °F 82% 29.74 in 10.0 mi Calm Calm - N/A   Clear
5:35 AM 53.6 °F 48.2 °F 82% 29.74 in 10.0 mi Calm Calm - N/A   Clear
5:55 AM 53.6 °F 48.2 °F 82% 29.74 in 10.0 mi Calm Calm - N/A   Clear
6:15 AM 53.6 °F 48.2 °F 82% 29.74 in 10.0 mi Calm Calm - N/A   Mostly Cloudy
6:35 AM 53.6 °F 48.2 °F 82% 29.74 in 10.0 mi Calm Calm - N/A   Scattered Clouds
6:55 AM 50.0 °F 46.4 °F 87% 29.74 in 10.0 mi Calm Calm - N/A   Clear
7:15 AM 51.8 °F 46.4 °F 82% 29.74 in 10.0 mi Calm Calm - N/A   Clear
7:35 AM 50.0 °F 46.4 °F 87% 29.74 in 10.0 mi Calm Calm - N/A   Clear
8:15 AM 51.8 °F 46.4 °F 82% 29.72 in 7.0 mi Calm Calm - N/A   Clear
8:35 AM 53.6 °F 50.0 °F 88% 29.72 in 7.0 mi Calm Calm - N/A   Clear
8:55 AM 55.4 °F 51.8 °F 88% 29.72 in 7.0 mi Calm Calm - N/A   Clear
9:15 AM 59.0 °F 53.6 °F 82% 29.72 in 7.0 mi Calm Calm - N/A   Clear
9:35 AM 60.8 °F 55.4 °F 82% 29.72 in 7.0 mi Calm Calm - N/A   Scattered Clouds
9:55 AM 60.8 °F 55.4 °F 82% 29.72 in 7.0 mi Calm Calm - N/A   Scattered Clouds
10:15 AM 62.6 °F 55.4 °F 77% 29.72 in 10.0 mi Calm Calm - N/A   Scattered Clouds
10:35 AM 62.6 °F 57.2 °F 82% 29.73 in 7.0 mi Calm Calm - N/A   Scattered Clouds
10:55 AM 62.6 °F 57.2 °F 82% 29.73 in 10.0 mi WNW 3.5 mph - N/A   Scattered Clouds
11:15 AM 62.6 °F 55.4 °F 77% 29.73 in 10.0 mi WNW 3.5 mph - N/A   Scattered Clouds
11:35 AM 62.6 °F 55.4 °F 77% 29.74 in 10.0 mi Calm Calm - N/A   Mostly Cloudy
11:55 AM 62.6 °F 55.4 °F 77% 29.73 in 10.0 mi Calm Calm - N/A   Overcast
12:15 PM 60.8 °F 55.4 °F 82% 29.74 in 7.0 mi Calm Calm - N/A   Overcast
12:35 PM 60.8 °F 55.4 °F 82% 29.74 in 7.0 mi WNW 3.5 mph - N/A   Overcast
12:55 PM 60.8 °F 55.4 °F 82% 29.73 in 10.0 mi NNW 5.8 mph - N/A   Mostly Cloudy
1:15 PM 60.8 °F 55.4 °F 82% 29.73 in 10.0 mi NNW 5.8 mph - N/A   Overcast